Time,TemperatureF,DewpointF,PressureIn,WindDirection,WindDirectionDegrees,WindSpeedMPH,WindSpeedGustMPH,Humidity,HourlyPrecipIn,Conditions,Clouds,dailyrainin,SoftwareType,DateUTC
2013-11-02 00:01:00,48.0,47.0,28.60,SSW,202,5.0,10.0,95,0.00,,,0.00,Rainwise IP-100,2013-11-02 04:01:00,
2013-11-02 00:02:00,48.2,47.0,28.59,South,180,4.0,10.0,95,0.00,,,0.00,Rainwise IP-100,2013-11-02 04:02:00,
2013-11-02 00:03:00,48.0,47.0,28.59,SSW,202,4.0,10.0,95,0.00,,,0.00,Rainwise IP-100,2013-11-02 04:03:00,
2013-11-02 00:04:00,47.9,47.0,28.59,SSW,202,4.0,10.0,95,0.00,,,0.00,Rainwise IP-100,2013-11-02 04:04:00,
2013-11-02 00:05:00,47.9,47.0,28.59,South,180,7.0,9.0,96,0.00,,,0.00,Rainwise IP-100,2013-11-02 04:05:00,
2013-11-02 00:07:00,48.0,47.0,28.59,South,180,4.0,8.0,96,0.00,,,0.00,Rainwise IP-100,2013-11-02 04:07:00,
2013-11-02 00:12:00,47.9,47.0,28.59,SSW,202,4.0,9.0,96,0.00,,,0.00,Rainwise IP-100,2013-11-02 04:12:00,
2013-11-02 00:17:00,47.8,47.0,28.59,SSW,202,3.0,7.0,97,0.00,,,0.00,Rainwise IP-100,2013-11-02 04:17:00,
2013-11-02 00:22:00,47.7,47.0,28.58,SSW,202,4.0,8.0,97,0.00,,,0.00,Rainwise IP-100,2013-11-02 04:22:00,
2013-11-02 00:27:00,47.7,47.0,28.58,SW,225,6.0,9.0,97,0.00,,,0.00,Rainwise IP-100,2013-11-02 04:27:00,
2013-11-02 00:32:00,47.7,47.0,28.58,SW,225,4.0,8.0,97,0.00,,,0.00,Rainwise IP-100,2013-11-02 04:32:00,
2013-11-02 00:38:00,47.7,47.0,28.58,SW,225,4.0,9.0,97,0.00,,,0.00,Rainwise IP-100,2013-11-02 04:38:00,
2013-11-02 00:43:00,47.5,47.0,28.58,SSW,202,4.0,8.0,96,0.00,,,0.00,Rainwise IP-100,2013-11-02 04:43:00,
2013-11-02 00:48:00,47.5,47.0,28.58,SSW,202,3.0,7.0,97,0.00,,,0.00,Rainwise IP-100,2013-11-02 04:48:00,
2013-11-02 00:53:00,47.4,47.0,28.58,SSW,202,4.0,7.0,97,0.00,,,0.00,Rainwise IP-100,2013-11-02 04:53:00,
2013-11-02 00:58:00,47.3,46.0,28.58,SSW,202,6.0,7.0,97,0.00,,,0.00,Rainwise IP-100,2013-11-02 04:58:00,
2013-11-02 01:03:00,47.2,46.0,28.58,South,180,4.0,7.0,97,0.00,,,0.00,Rainwise IP-100,2013-11-02 05:03:00,
2013-11-02 01:08:00,47.1,46.0,28.57,South,180,6.0,7.0,97,0.00,,,0.00,Rainwise IP-100,2013-11-02 05:08:00,
2013-11-02 01:13:00,47.1,46.0,28.58,South,180,6.0,9.0,97,0.00,,,0.00,Rainwise IP-100,2013-11-02 05:13:00,
2013-11-02 01:18:00,46.9,46.0,28.57,SSW,202,4.0,7.0,97,0.00,,,0.00,Rainwise IP-100,2013-11-02 05:18:00,
2013-11-02 01:23:00,46.9,46.0,28.57,South,180,4.0,9.0,97,0.00,,,0.00,Rainwise IP-100,2013-11-02 05:23:00,
2013-11-02 01:28:00,46.9,46.0,28.57,South,180,3.0,9.0,97,0.00,,,0.00,Rainwise IP-100,2013-11-02 05:28:00,
2013-11-02 01:33:00,46.9,46.0,28.57,SSE,157,4.0,7.0,97,0.00,,,0.00,Rainwise IP-100,2013-11-02 05:33:00,
2013-11-02 01:39:00,46.9,46.0,28.56,SSW,202,3.0,7.0,97,0.00,,,0.00,Rainwise IP-100,2013-11-02 05:39:00,
2013-11-02 01:44:00,46.8,46.0,28.57,South,180,7.0,7.0,97,0.00,,,0.00,Rainwise IP-100,2013-11-02 05:44:00,
2013-11-02 01:49:00,46.8,46.0,28.56,SSW,202,7.0,8.0,97,0.00,,,0.00,Rainwise IP-100,2013-11-02 05:49:00,
2013-11-02 01:54:00,46.8,46.0,28.56,South,180,3.0,7.0,97,0.00,,,0.00,Rainwise IP-100,2013-11-02 05:54:00,
2013-11-02 01:59:00,46.7,46.0,28.56,SSE,157,4.0,9.0,97,0.00,,,0.00,Rainwise IP-100,2013-11-02 05:59:00,
2013-11-02 02:04:00,46.8,46.0,28.56,SSW,202,3.0,7.0,97,0.00,,,0.00,Rainwise IP-100,2013-11-02 06:04:00,
2013-11-02 02:09:00,46.8,46.0,28.56,South,180,9.0,9.0,97,0.00,,,0.00,Rainwise IP-100,2013-11-02 06:09:00,
2013-11-02 02:14:00,46.9,46.0,28.56,SSW,202,7.0,13.0,97,0.00,,,0.00,Rainwise IP-100,2013-11-02 06:14:00,
2013-11-02 02:19:00,47.0,46.0,28.56,South,180,2.0,10.0,97,0.00,,,0.00,Rainwise IP-100,2013-11-02 06:19:00,
2013-11-02 02:24:00,47.1,46.0,28.56,South,180,4.0,6.0,97,0.00,,,0.00,Rainwise IP-100,2013-11-02 06:24:00,
2013-11-02 02:29:00,47.1,46.0,28.56,South,180,4.0,7.0,97,0.00,,,0.00,Rainwise IP-100,2013-11-02 06:29:00,
2013-11-02 02:34:00,47.1,46.0,28.56,South,180,6.0,7.0,97,0.00,,,0.00,Rainwise IP-100,2013-11-02 06:34:00,
2013-11-02 02:40:00,47.1,46.0,28.55,SSW,202,4.0,7.0,97,0.00,,,0.00,Rainwise IP-100,2013-11-02 06:40:00,
2013-11-02 02:45:00,47.1,46.0,28.55,SSW,202,4.0,6.0,97,0.00,,,0.00,Rainwise IP-100,2013-11-02 06:45:00,
2013-11-02 02:50:00,47.1,46.0,28.55,SSW,202,6.0,9.0,97,0.00,,,0.00,Rainwise IP-100,2013-11-02 06:50:00,
2013-11-02 02:55:00,47.2,46.0,28.55,SSW,202,4.0,7.0,97,0.00,,,0.00,Rainwise IP-100,2013-11-02 06:55:00,
2013-11-02 03:00:00,47.3,46.0,28.55,South,180,6.0,7.0,97,0.00,,,0.00,Rainwise IP-100,2013-11-02 07:00:00,
2013-11-02 03:05:00,47.4,47.0,28.55,SSW,202,6.0,7.0,97,0.00,,,0.00,Rainwise IP-100,2013-11-02 07:05:00,
2013-11-02 03:10:00,47.5,47.0,28.55,South,180,6.0,8.0,97,0.00,,,0.00,Rainwise IP-100,2013-11-02 07:10:00,
2013-11-02 03:15:00,47.4,47.0,28.55,South,180,2.0,8.0,97,0.00,,,0.00,Rainwise IP-100,2013-11-02 07:15:00,
2013-11-02 03:20:00,47.4,47.0,28.55,SSW,202,4.0,6.0,97,0.00,,,0.00,Rainwise IP-100,2013-11-02 07:20:00,
2013-11-02 03:25:00,47.4,47.0,28.55,South,180,2.0,7.0,97,0.00,,,0.00,Rainwise IP-100,2013-11-02 07:25:00,
2013-11-02 03:30:00,47.3,46.0,28.55,SSW,202,4.0,7.0,97,0.00,,,0.00,Rainwise IP-100,2013-11-02 07:30:00,
2013-11-02 03:35:00,47.3,46.0,28.55,South,180,3.0,7.0,97,0.00,,,0.00,Rainwise IP-100,2013-11-02 07:35:00,
2013-11-02 03:41:00,47.3,46.0,28.55,South,180,2.0,6.0,97,0.00,,,0.00,Rainwise IP-100,2013-11-02 07:41:00,
2013-11-02 03:46:00,47.2,46.0,28.55,South,180,2.0,4.0,97,0.00,,,0.00,Rainwise IP-100,2013-11-02 07:46:00,
2013-11-02 03:51:00,47.2,46.0,28.55,South,180,2.0,4.0,97,0.00,,,0.00,Rainwise IP-100,2013-11-02 07:51:00,
2013-11-02 03:56:00,47.1,46.0,28.54,South,180,3.0,5.0,97,0.06,,,0.01,Rainwise IP-100,2013-11-02 07:56:00,
2013-11-02 04:01:00,47.2,46.0,28.54,South,180,3.0,5.0,97,0.06,,,0.01,Rainwise IP-100,2013-11-02 08:01:00,
2013-11-02 04:06:00,47.1,46.0,28.54,South,180,2.0,4.0,97,0.00,,,0.01,Rainwise IP-100,2013-11-02 08:06:00,
2013-11-02 04:11:00,47.1,46.0,28.55,SSW,202,2.0,3.0,97,0.00,,,0.01,Rainwise IP-100,2013-11-02 08:11:00,
2013-11-02 04:16:00,47.1,46.0,28.55,SW,225,1.0,3.0,97,0.00,,,0.01,Rainwise IP-100,2013-11-02 08:16:00,
2013-11-02 04:21:00,47.0,46.0,28.55,South,180,1.0,3.0,97,0.00,,,0.01,Rainwise IP-100,2013-11-02 08:21:00,
2013-11-02 04:26:00,47.0,46.0,28.54,SSW,202,3.0,4.0,97,0.00,,,0.01,Rainwise IP-100,2013-11-02 08:26:00,
2013-11-02 04:31:00,47.0,46.0,28.54,SSW,202,1.0,4.0,97,0.00,,,0.01,Rainwise IP-100,2013-11-02 08:31:00,
2013-11-02 04:36:00,47.1,46.0,28.54,SW,225,2.0,2.0,97,0.00,,,0.01,Rainwise IP-100,2013-11-02 08:36:00,
2013-11-02 04:42:00,47.2,46.0,28.54,SW,225,2.0,2.0,97,0.00,,,0.01,Rainwise IP-100,2013-11-02 08:42:00,
2013-11-02 04:47:00,47.2,46.0,28.54,SW,225,3.0,4.0,97,0.00,,,0.01,Rainwise IP-100,2013-11-02 08:47:00,
2013-11-02 04:52:00,47.3,46.0,28.54,SW,225,1.0,4.0,97,0.00,,,0.01,Rainwise IP-100,2013-11-02 08:52:00,
2013-11-02 04:57:00,47.4,47.0,28.54,WSW,247,4.0,6.0,97,0.00,,,0.01,Rainwise IP-100,2013-11-02 08:57:00,
2013-11-02 05:02:00,47.7,47.0,28.55,SW,225,3.0,5.0,97,0.00,,,0.01,Rainwise IP-100,2013-11-02 09:02:00,
2013-11-02 05:07:00,47.7,47.0,28.55,SSW,202,4.0,5.0,97,0.00,,,0.01,Rainwise IP-100,2013-11-02 09:07:00,
2013-11-02 05:12:00,47.8,47.0,28.55,SW,225,2.0,7.0,97,0.00,,,0.01,Rainwise IP-100,2013-11-02 09:12:00,
2013-11-02 05:17:00,47.7,47.0,28.55,WSW,247,1.0,4.0,97,0.00,,,0.01,Rainwise IP-100,2013-11-02 09:17:00,
2013-11-02 05:22:00,47.5,47.0,28.55,SSW,202,2.0,4.0,97,0.00,,,0.01,Rainwise IP-100,2013-11-02 09:22:00,
2013-11-02 05:27:00,47.3,46.0,28.55,WSW,247,2.0,4.0,97,0.00,,,0.01,Rainwise IP-100,2013-11-02 09:27:00,
2013-11-02 05:32:00,47.2,46.0,28.56,SW,225,2.0,3.0,97,0.00,,,0.01,Rainwise IP-100,2013-11-02 09:32:00,
2013-11-02 05:37:00,47.1,46.0,28.56,WSW,247,1.0,3.0,97,0.00,,,0.01,Rainwise IP-100,2013-11-02 09:37:00,
2013-11-02 05:43:00,46.9,46.0,28.56,WSW,247,2.0,2.0,97,0.00,,,0.01,Rainwise IP-100,2013-11-02 09:43:00,
2013-11-02 05:48:00,46.9,46.0,28.56,WSW,247,2.0,2.0,97,0.00,,,0.01,Rainwise IP-100,2013-11-02 09:48:00,
2013-11-02 05:53:00,46.8,46.0,28.56,SW,225,1.0,2.0,97,0.00,,,0.01,Rainwise IP-100,2013-11-02 09:53:00,
2013-11-02 05:58:00,46.7,46.0,28.56,SW,225,1.0,2.0,97,0.00,,,0.01,Rainwise IP-100,2013-11-02 09:58:00,
2013-11-02 06:03:00,46.4,45.0,28.56,SW,225,1.0,2.0,97,0.00,,,0.01,Rainwise IP-100,2013-11-02 10:03:00,
2013-11-02 06:08:00,46.2,45.0,28.56,SW,225,1.0,2.0,97,0.00,,,0.01,Rainwise IP-100,2013-11-02 10:08:00,
2013-11-02 06:13:00,45.9,45.0,28.56,SSW,202,1.0,2.0,97,0.00,,,0.01,Rainwise IP-100,2013-11-02 10:13:00,
2013-11-02 06:18:00,45.6,45.0,28.55,SSW,202,1.0,2.0,97,0.00,,,0.01,Rainwise IP-100,2013-11-02 10:18:00,
2013-11-02 06:23:00,45.3,44.0,28.55,SSW,202,2.0,2.0,97,0.00,,,0.01,Rainwise IP-100,2013-11-02 10:23:00,
2013-11-02 06:28:00,45.1,44.0,28.55,SW,225,2.0,2.0,97,0.00,,,0.01,Rainwise IP-100,2013-11-02 10:28:00,
2013-11-02 06:33:00,45.0,44.0,28.55,SW,225,2.0,4.0,97,0.00,,,0.01,Rainwise IP-100,2013-11-02 10:33:00,
2013-11-02 06:38:00,44.9,44.0,28.55,SW,225,2.0,3.0,96,0.00,,,0.01,Rainwise IP-100,2013-11-02 10:38:00,
2013-11-02 06:44:00,45.0,44.0,28.56,South,180,4.0,5.0,97,0.00,,,0.01,Rainwise IP-100,2013-11-02 10:44:00,
2013-11-02 06:49:00,45.1,44.0,28.56,SW,225,2.0,4.0,97,0.00,,,0.01,Rainwise IP-100,2013-11-02 10:49:00,
2013-11-02 06:54:00,45.2,44.0,28.56,WSW,247,3.0,3.0,97,0.00,,,0.01,Rainwise IP-100,2013-11-02 10:54:00,
2013-11-02 06:59:00,45.3,44.0,28.56,SSW,202,4.0,4.0,97,0.00,,,0.01,Rainwise IP-100,2013-11-02 10:59:00,
2013-11-02 07:04:00,45.2,44.0,28.56,SSW,202,2.0,4.0,97,0.00,,,0.01,Rainwise IP-100,2013-11-02 11:04:00,
2013-11-02 07:09:00,45.3,44.0,28.56,SSW,202,1.0,3.0,97,0.00,,,0.01,Rainwise IP-100,2013-11-02 11:09:00,
2013-11-02 07:14:00,45.3,44.0,28.56,SW,225,1.0,4.0,97,0.00,,,0.01,Rainwise IP-100,2013-11-02 11:14:00,
2013-11-02 07:19:00,45.5,45.0,28.56,SSW,202,2.0,6.0,97,0.00,,,0.01,Rainwise IP-100,2013-11-02 11:19:00,
2013-11-02 07:24:00,45.6,45.0,28.57,SW,225,2.0,3.0,97,0.00,,,0.01,Rainwise IP-100,2013-11-02 11:24:00,
2013-11-02 07:29:00,45.6,45.0,28.57,SSW,202,2.0,3.0,97,0.00,,,0.01,Rainwise IP-100,2013-11-02 11:29:00,
2013-11-02 07:34:00,45.5,45.0,28.56,SW,225,2.0,6.0,97,0.00,,,0.01,Rainwise IP-100,2013-11-02 11:34:00,
2013-11-02 07:39:00,45.6,45.0,28.57,SW,225,3.0,5.0,97,0.00,,,0.01,Rainwise IP-100,2013-11-02 11:39:00,
2013-11-02 07:45:00,45.7,45.0,28.56,SW,225,3.0,6.0,97,0.00,,,0.01,Rainwise IP-100,2013-11-02 11:45:00,
2013-11-02 07:50:00,45.8,45.0,28.57,SW,225,6.0,6.0,97,0.00,,,0.01,Rainwise IP-100,2013-11-02 11:50:00,
2013-11-02 07:55:00,45.8,45.0,28.57,SSW,202,3.0,7.0,97,0.00,,,0.01,Rainwise IP-100,2013-11-02 11:55:00,
2013-11-02 08:00:00,45.7,45.0,28.57,SW,225,3.0,6.0,97,0.00,,,0.01,Rainwise IP-100,2013-11-02 12:00:00,
2013-11-02 08:05:00,45.7,45.0,28.57,SSW,202,4.0,7.0,97,0.00,,,0.01,Rainwise IP-100,2013-11-02 12:05:00,
2013-11-02 08:10:00,45.7,45.0,28.57,SW,225,2.0,7.0,97,0.00,,,0.01,Rainwise IP-100,2013-11-02 12:10:00,
2013-11-02 08:15:00,45.7,45.0,28.57,SSW,202,2.0,4.0,97,0.00,,,0.01,Rainwise IP-100,2013-11-02 12:15:00,
2013-11-02 08:20:00,45.8,45.0,28.58,WSW,247,4.0,6.0,97,0.00,,,0.01,Rainwise IP-100,2013-11-02 12:20:00,
2013-11-02 08:25:00,45.8,45.0,28.58,SW,225,3.0,6.0,97,0.00,,,0.01,Rainwise IP-100,2013-11-02 12:25:00,
2013-11-02 08:30:00,45.9,45.0,28.58,SSW,202,2.0,6.0,97,0.00,,,0.01,Rainwise IP-100,2013-11-02 12:30:00,
2013-11-02 08:35:00,45.9,45.0,28.58,SW,225,2.0,4.0,97,0.00,,,0.01,Rainwise IP-100,2013-11-02 12:35:00,
2013-11-02 08:40:00,46.0,45.0,28.58,SW,225,3.0,4.0,97,0.00,,,0.01,Rainwise IP-100,2013-11-02 12:40:00,
2013-11-02 08:46:00,46.1,45.0,28.58,SSW,202,4.0,5.0,97,0.00,,,0.01,Rainwise IP-100,2013-11-02 12:46:00,
2013-11-02 08:51:00,46.2,45.0,28.58,SSW,202,3.0,5.0,97,0.00,,,0.01,Rainwise IP-100,2013-11-02 12:51:00,
2013-11-02 08:56:00,46.3,45.0,28.59,SW,225,2.0,6.0,97,0.00,,,0.01,Rainwise IP-100,2013-11-02 12:56:00,
2013-11-02 09:01:00,46.5,46.0,28.59,SW,225,1.0,4.0,97,0.00,,,0.01,Rainwise IP-100,2013-11-02 13:01:00,
2013-11-02 09:06:00,46.7,46.0,28.60,WSW,247,3.0,5.0,96,0.00,,,0.01,Rainwise IP-100,2013-11-02 13:06:00,
2013-11-02 09:11:00,46.8,46.0,28.60,SSW,202,1.0,4.0,96,0.00,,,0.01,Rainwise IP-100,2013-11-02 13:11:00,
2013-11-02 09:16:00,46.9,45.0,28.60,SW,225,2.0,6.0,95,0.00,,,0.01,Rainwise IP-100,2013-11-02 13:16:00,
2013-11-02 09:21:00,47.1,45.0,28.60,SW,225,2.0,6.0,95,0.00,,,0.01,Rainwise IP-100,2013-11-02 13:21:00,
2013-11-02 09:26:00,47.3,45.0,28.60,SW,225,3.0,5.0,95,0.00,,,0.01,Rainwise IP-100,2013-11-02 13:26:00,
2013-11-02 09:31:00,47.5,46.0,28.60,SW,225,4.0,5.0,94,0.00,,,0.01,Rainwise IP-100,2013-11-02 13:31:00,
2013-11-02 09:36:00,47.7,46.0,28.60,West,270,4.0,7.0,94,0.00,,,0.01,Rainwise IP-100,2013-11-02 13:36:00,
2013-11-02 09:41:00,47.8,46.0,28.61,WSW,247,4.0,9.0,93,0.00,,,0.01,Rainwise IP-100,2013-11-02 13:41:00,
2013-11-02 09:47:00,47.8,46.0,28.61,WSW,247,2.0,6.0,93,0.00,,,0.01,Rainwise IP-100,2013-11-02 13:47:00,
2013-11-02 09:52:00,48.0,47.0,28.61,SW,225,2.0,7.0,93,0.00,,,0.01,Rainwise IP-100,2013-11-02 13:52:00,
2013-11-02 09:57:00,48.1,46.0,28.61,WSW,247,3.0,7.0,92,0.00,,,0.01,Rainwise IP-100,2013-11-02 13:57:00,
2013-11-02 10:02:00,48.3,46.0,28.61,West,270,6.0,6.0,92,0.00,,,0.01,Rainwise IP-100,2013-11-02 14:02:00,
2013-11-02 10:07:00,48.2,46.0,28.61,West,270,6.0,7.0,91,0.00,,,0.01,Rainwise IP-100,2013-11-02 14:07:00,
2013-11-02 10:12:00,48.0,46.0,28.61,WSW,247,9.0,9.0,92,0.00,,,0.01,Rainwise IP-100,2013-11-02 14:12:00,
2013-11-02 10:17:00,47.9,46.0,28.61,WSW,247,7.0,9.0,92,0.00,,,0.01,Rainwise IP-100,2013-11-02 14:17:00,
2013-11-02 10:22:00,48.2,47.0,28.60,WSW,247,4.0,9.0,93,0.00,,,0.01,Rainwise IP-100,2013-11-02 14:22:00,
2013-11-02 10:27:00,48.3,46.0,28.60,SW,225,5.0,9.0,91,0.00,,,0.01,Rainwise IP-100,2013-11-02 14:27:00,
2013-11-02 10:32:00,48.6,47.0,28.61,WSW,247,3.0,6.0,91,0.00,,,0.01,Rainwise IP-100,2013-11-02 14:32:00,
2013-11-02 10:37:00,48.8,47.0,28.61,West,270,3.0,7.0,90,0.00,,,0.01,Rainwise IP-100,2013-11-02 14:37:00,
2013-11-02 10:42:00,48.7,47.0,28.61,WSW,247,2.0,9.0,90,0.00,,,0.01,Rainwise IP-100,2013-11-02 14:42:00,
2013-11-02 10:48:00,48.9,47.0,28.61,WSW,247,2.0,6.0,91,0.00,,,0.01,Rainwise IP-100,2013-11-02 14:48:00,
2013-11-02 10:53:00,49.1,47.0,28.61,SW,225,4.0,5.0,91,0.00,,,0.01,Rainwise IP-100,2013-11-02 14:53:00,
2013-11-02 10:58:00,48.9,47.0,28.61,WSW,247,2.0,8.0,90,0.00,,,0.01,Rainwise IP-100,2013-11-02 14:58:00,
2013-11-02 11:03:00,48.9,47.0,28.61,West,270,5.0,7.0,91,0.00,,,0.01,Rainwise IP-100,2013-11-02 15:03:00,
2013-11-02 11:08:00,48.9,47.0,28.61,WSW,247,3.0,9.0,90,0.00,,,0.01,Rainwise IP-100,2013-11-02 15:08:00,
2013-11-02 11:13:00,49.1,46.0,28.61,WSW,247,6.0,7.0,89,0.00,,,0.01,Rainwise IP-100,2013-11-02 15:13:00,
2013-11-02 11:18:00,49.3,46.0,28.62,WSW,247,9.0,9.0,89,0.00,,,0.01,Rainwise IP-100,2013-11-02 15:18:00,
2013-11-02 11:23:00,49.5,47.0,28.62,WSW,247,2.0,9.0,91,0.00,,,0.01,Rainwise IP-100,2013-11-02 15:23:00,
2013-11-02 11:28:00,49.4,47.0,28.62,SSW,202,2.0,9.0,90,0.00,,,0.01,Rainwise IP-100,2013-11-02 15:28:00,
2013-11-02 11:33:00,49.4,47.0,28.62,WSW,247,4.0,8.0,91,0.00,,,0.01,Rainwise IP-100,2013-11-02 15:33:00,
2013-11-02 11:38:00,49.5,47.0,28.62,West,270,2.0,6.0,91,0.00,,,0.01,Rainwise IP-100,2013-11-02 15:38:00,
2013-11-02 11:43:00,49.6,47.0,28.62,West,270,2.0,7.0,92,0.00,,,0.01,Rainwise IP-100,2013-11-02 15:43:00,
2013-11-02 11:49:00,49.6,47.0,28.62,West,270,4.0,9.0,92,0.00,,,0.01,Rainwise IP-100,2013-11-02 15:49:00,
2013-11-02 11:54:00,49.4,47.0,28.62,West,270,2.0,6.0,92,0.00,,,0.01,Rainwise IP-100,2013-11-02 15:54:00,
2013-11-02 11:59:00,49.5,47.0,28.62,SW,225,4.0,7.0,91,0.00,,,0.01,Rainwise IP-100,2013-11-02 15:59:00,
2013-11-02 12:04:00,49.6,47.0,28.62,WSW,247,2.0,7.0,92,0.00,,,0.01,Rainwise IP-100,2013-11-02 16:04:00,
2013-11-02 12:09:00,49.9,47.0,28.62,WNW,292,2.0,4.0,91,0.00,,,0.01,Rainwise IP-100,2013-11-02 16:09:00,
2013-11-02 12:14:00,49.9,47.0,28.63,WNW,292,3.0,6.0,90,0.00,,,0.01,Rainwise IP-100,2013-11-02 16:14:00,
2013-11-02 12:19:00,49.8,47.0,28.63,NW,315,1.0,6.0,91,0.00,,,0.01,Rainwise IP-100,2013-11-02 16:19:00,
2013-11-02 12:24:00,49.6,47.0,28.63,West,270,2.0,6.0,92,0.00,,,0.01,Rainwise IP-100,2013-11-02 16:24:00,
2013-11-02 12:29:00,49.3,47.0,28.63,West,270,3.0,6.0,92,0.00,,,0.01,Rainwise IP-100,2013-11-02 16:29:00,
2013-11-02 12:34:00,49.1,47.0,28.63,NW,315,4.0,6.0,94,0.00,,,0.01,Rainwise IP-100,2013-11-02 16:34:00,
2013-11-02 12:39:00,48.7,47.0,28.62,WNW,292,4.0,8.0,95,0.00,,,0.01,Rainwise IP-100,2013-11-02 16:39:00,
2013-11-02 12:44:00,48.4,47.0,28.62,West,270,2.0,7.0,97,0.00,,,0.01,Rainwise IP-100,2013-11-02 16:44:00,
2013-11-02 12:50:00,48.0,47.0,28.62,West,270,4.0,8.0,97,0.00,,,0.01,Rainwise IP-100,2013-11-02 16:50:00,
2013-11-02 12:55:00,47.7,47.0,28.62,West,270,2.0,9.0,97,0.00,,,0.01,Rainwise IP-100,2013-11-02 16:55:00,
2013-11-02 13:00:00,47.5,47.0,28.62,NW,315,2.0,6.0,97,0.00,,,0.01,Rainwise IP-100,2013-11-02 17:00:00,
2013-11-02 13:05:00,47.3,46.0,28.62,WNW,292,2.0,8.0,97,0.06,,,0.02,Rainwise IP-100,2013-11-02 17:05:00,
2013-11-02 13:10:00,47.2,46.0,28.62,NNE,22,2.0,6.0,97,0.06,,,0.02,Rainwise IP-100,2013-11-02 17:10:00,
2013-11-02 13:15:00,47.1,46.0,28.62,NNW,337,2.0,6.0,97,0.00,,,0.02,Rainwise IP-100,2013-11-02 17:15:00,
2013-11-02 13:20:00,46.9,46.0,28.62,NNW,337,2.0,6.0,97,0.00,,,0.02,Rainwise IP-100,2013-11-02 17:20:00,
2013-11-02 13:25:00,46.6,46.0,28.62,North,360,9.0,9.0,97,0.06,,,0.03,Rainwise IP-100,2013-11-02 17:25:00,
2013-11-02 13:30:00,46.2,45.0,28.61,NNE,22,4.0,11.0,97,0.06,,,0.03,Rainwise IP-100,2013-11-02 17:30:00,
2013-11-02 13:35:00,45.7,45.0,28.62,North,360,3.0,8.0,97,0.00,,,0.03,Rainwise IP-100,2013-11-02 17:35:00,
2013-11-02 13:40:00,45.5,45.0,28.62,NNE,22,3.0,10.0,97,0.00,,,0.03,Rainwise IP-100,2013-11-02 17:40:00,
2013-11-02 13:45:00,45.5,45.0,28.62,NNE,22,9.0,9.0,97,0.00,,,0.04,Rainwise IP-100,2013-11-02 17:45:00,
2013-11-02 13:51:00,45.4,44.0,28.62,North,360,5.0,9.0,97,0.06,,,0.04,Rainwise IP-100,2013-11-02 17:51:00,
2013-11-02 13:56:00,44.9,44.0,28.62,NE,45,7.0,11.0,96,0.00,,,0.04,Rainwise IP-100,2013-11-02 17:56:00,
2013-11-02 14:01:00,44.5,44.0,28.62,NE,45,4.0,13.0,96,0.06,,,0.05,Rainwise IP-100,2013-11-02 18:01:00,
2013-11-02 14:06:00,44.3,43.0,28.62,NNE,22,10.0,12.0,96,0.06,,,0.05,Rainwise IP-100,2013-11-02 18:06:00,
2013-11-02 14:11:00,43.9,43.0,28.62,NNE,22,8.0,15.0,96,0.00,,,0.05,Rainwise IP-100,2013-11-02 18:11:00,
2013-11-02 14:16:00,43.8,43.0,28.62,NNE,22,5.0,11.0,96,0.00,,,0.06,Rainwise IP-100,2013-11-02 18:16:00,
2013-11-02 14:21:00,43.6,43.0,28.62,NE,45,6.0,9.0,96,0.06,,,0.06,Rainwise IP-100,2013-11-02 18:21:00,
2013-11-02 14:26:00,43.3,42.0,28.62,North,360,7.0,14.0,96,0.06,,,0.06,Rainwise IP-100,2013-11-02 18:26:00,
2013-11-02 14:31:00,43.2,42.0,28.62,NNE,22,7.0,11.0,96,0.00,,,0.06,Rainwise IP-100,2013-11-02 18:31:00,
2013-11-02 14:36:00,42.9,42.0,28.62,NW,315,4.0,16.0,96,0.00,,,0.06,Rainwise IP-100,2013-11-02 18:36:00,
2013-11-02 14:41:00,42.8,42.0,28.63,North,360,6.0,15.0,96,0.00,,,0.06,Rainwise IP-100,2013-11-02 18:41:00,
2013-11-02 14:46:00,42.5,42.0,28.63,NE,45,7.0,10.0,96,0.00,,,0.06,Rainwise IP-100,2013-11-02 18:46:00,
2013-11-02 14:52:00,42.3,41.0,28.63,North,360,10.0,14.0,96,0.06,,,0.07,Rainwise IP-100,2013-11-02 18:52:00,
2013-11-02 14:57:00,42.1,41.0,28.63,North,360,7.0,12.0,96,0.06,,,0.07,Rainwise IP-100,2013-11-02 18:57:00,
2013-11-02 15:02:00,42.1,41.0,28.64,NE,45,7.0,10.0,96,0.00,,,0.07,Rainwise IP-100,2013-11-02 19:02:00,
2013-11-02 15:07:00,41.9,41.0,28.64,North,360,7.0,16.0,96,0.00,,,0.07,Rainwise IP-100,2013-11-02 19:07:00,
2013-11-02 15:12:00,42.0,41.0,28.64,NNE,22,6.0,14.0,96,0.00,,,0.07,Rainwise IP-100,2013-11-02 19:12:00,
2013-11-02 15:17:00,41.9,41.0,28.64,NNE,22,7.0,16.0,96,0.00,,,0.07,Rainwise IP-100,2013-11-02 19:17:00,
2013-11-02 15:22:00,42.1,41.0,28.64,NE,45,6.0,14.0,96,0.00,,,0.07,Rainwise IP-100,2013-11-02 19:22:00,
2013-11-02 15:27:00,42.2,41.0,28.64,North,360,7.0,10.0,96,0.00,,,0.07,Rainwise IP-100,2013-11-02 19:27:00,
2013-11-02 15:32:00,42.1,41.0,28.65,NE,45,6.0,12.0,96,0.06,,,0.08,Rainwise IP-100,2013-11-02 19:32:00,
2013-11-02 15:37:00,41.9,41.0,28.65,North,360,5.0,16.0,96,0.06,,,0.08,Rainwise IP-100,2013-11-02 19:37:00,
2013-11-02 15:42:00,41.9,41.0,28.65,North,360,7.0,14.0,96,0.06,,,0.09,Rainwise IP-100,2013-11-02 19:42:00,
2013-11-02 15:47:00,41.9,41.0,28.66,North,360,5.0,9.0,96,0.06,,,0.09,Rainwise IP-100,2013-11-02 19:47:00,
2013-11-02 15:53:00,41.9,41.0,28.66,North,360,4.0,7.0,96,0.06,,,0.10,Rainwise IP-100,2013-11-02 19:53:00,
2013-11-02 15:58:00,41.8,41.0,28.66,North,360,4.0,11.0,96,0.06,,,0.10,Rainwise IP-100,2013-11-02 19:58:00,
2013-11-02 16:03:00,41.7,41.0,28.66,NE,45,7.0,13.0,96,0.00,,,0.10,Rainwise IP-100,2013-11-02 20:03:00,
2013-11-02 16:08:00,41.7,41.0,28.67,NNE,22,7.0,11.0,96,0.00,,,0.10,Rainwise IP-100,2013-11-02 20:08:00,
2013-11-02 16:13:00,41.6,41.0,28.67,NNE,22,10.0,16.0,96,0.00,,,0.10,Rainwise IP-100,2013-11-02 20:13:00,
2013-11-02 16:18:00,41.6,41.0,28.68,North,360,10.0,11.0,96,0.06,,,0.11,Rainwise IP-100,2013-11-02 20:18:00,
2013-11-02 16:23:00,41.1,40.0,28.68,NNE,22,7.0,15.0,96,0.06,,,0.11,Rainwise IP-100,2013-11-02 20:23:00,
2013-11-02 16:28:00,40.9,40.0,28.68,North,360,12.0,12.0,96,0.00,,,0.11,Rainwise IP-100,2013-11-02 20:28:00,
2013-11-02 16:33:00,40.6,40.0,28.68,NE,45,9.0,16.0,96,0.00,,,0.11,Rainwise IP-100,2013-11-02 20:33:00,
2013-11-02 16:38:00,40.5,40.0,28.68,NNE,22,7.0,13.0,96,0.00,,,0.11,Rainwise IP-100,2013-11-02 20:38:00,
2013-11-02 16:43:00,40.4,39.0,28.68,NW,315,7.0,14.0,96,0.00,,,0.11,Rainwise IP-100,2013-11-02 20:43:00,
2013-11-02 16:48:00,40.2,39.0,28.69,NNE,22,11.0,12.0,96,0.00,,,0.11,Rainwise IP-100,2013-11-02 20:48:00,
2013-11-02 16:54:00,40.2,39.0,28.69,North,360,8.0,12.0,96,0.00,,,0.11,Rainwise IP-100,2013-11-02 20:54:00,
2013-11-02 16:59:00,40.1,39.0,28.69,North,360,6.0,11.0,96,0.00,,,0.11,Rainwise IP-100,2013-11-02 20:59:00,
2013-11-02 17:04:00,39.9,39.0,28.70,North,360,6.0,11.0,96,0.00,,,0.11,Rainwise IP-100,2013-11-02 21:04:00,
2013-11-02 17:09:00,39.9,39.0,28.70,North,360,4.0,12.0,96,0.00,,,0.11,Rainwise IP-100,2013-11-02 21:09:00,
2013-11-02 17:14:00,39.9,39.0,28.70,North,360,5.0,10.0,96,0.06,,,0.12,Rainwise IP-100,2013-11-02 21:14:00,
2013-11-02 17:19:00,39.9,39.0,28.70,NNE,22,4.0,9.0,96,0.06,,,0.12,Rainwise IP-100,2013-11-02 21:19:00,
2013-11-02 17:24:00,39.8,39.0,28.70,NE,45,2.0,9.0,96,0.00,,,0.12,Rainwise IP-100,2013-11-02 21:24:00,
2013-11-02 17:29:00,39.8,39.0,28.71,NNE,22,3.0,7.0,96,0.00,,,0.12,Rainwise IP-100,2013-11-02 21:29:00,
2013-11-02 17:34:00,39.8,39.0,28.71,North,360,4.0,7.0,96,0.00,,,0.12,Rainwise IP-100,2013-11-02 21:34:00,
2013-11-02 17:39:00,39.8,39.0,28.71,North,360,5.0,7.0,96,0.00,,,0.12,Rainwise IP-100,2013-11-02 21:39:00,
2013-11-02 17:44:00,39.8,39.0,28.72,North,360,2.0,9.0,96,0.00,,,0.12,Rainwise IP-100,2013-11-02 21:44:00,
2013-11-02 17:49:00,39.7,39.0,28.72,NE,45,4.0,9.0,96,0.00,,,0.12,Rainwise IP-100,2013-11-02 21:49:00,
2013-11-02 17:55:00,39.7,39.0,28.72,NNE,22,6.0,7.0,96,0.06,,,0.13,Rainwise IP-100,2013-11-02 21:55:00,
2013-11-02 18:00:00,39.5,39.0,28.72,ENE,67,7.0,11.0,96,0.06,,,0.13,Rainwise IP-100,2013-11-02 22:00:00,
2013-11-02 18:05:00,39.4,38.0,28.73,North,360,8.0,12.0,96,0.00,,,0.13,Rainwise IP-100,2013-11-02 22:05:00,
2013-11-02 18:10:00,39.3,38.0,28.73,North,360,6.0,14.0,96,0.00,,,0.13,Rainwise IP-100,2013-11-02 22:10:00,
2013-11-02 18:15:00,39.2,38.0,28.74,North,360,7.0,13.0,96,0.00,,,0.13,Rainwise IP-100,2013-11-02 22:15:00,
2013-11-02 18:20:00,39.2,38.0,28.74,NNW,337,5.0,9.0,96,0.00,,,0.13,Rainwise IP-100,2013-11-02 22:20:00,
2013-11-02 18:25:00,39.1,38.0,28.74,NNE,22,5.0,11.0,96,0.00,,,0.13,Rainwise IP-100,2013-11-02 22:25:00,
2013-11-02 18:30:00,38.9,38.0,28.74,North,360,6.0,10.0,96,0.00,,,0.13,Rainwise IP-100,2013-11-02 22:30:00,
2013-11-02 18:35:00,38.9,38.0,28.75,NNW,337,3.0,8.0,96,0.06,,,0.14,Rainwise IP-100,2013-11-02 22:35:00,
2013-11-02 18:40:00,38.9,38.0,28.75,North,360,7.0,10.0,96,0.06,,,0.14,Rainwise IP-100,2013-11-02 22:40:00,
2013-11-02 18:45:00,38.9,38.0,28.75,NNE,22,4.0,9.0,96,0.00,,,0.14,Rainwise IP-100,2013-11-02 22:45:00,
2013-11-02 18:50:00,38.9,38.0,28.76,NNE,22,3.0,9.0,96,0.00,,,0.14,Rainwise IP-100,2013-11-02 22:50:00,
2013-11-02 18:56:00,38.9,38.0,28.76,North,360,4.0,7.0,96,0.00,,,0.14,Rainwise IP-100,2013-11-02 22:56:00,
2013-11-02 19:01:00,38.9,38.0,28.76,NNE,22,6.0,8.0,96,0.00,,,0.14,Rainwise IP-100,2013-11-02 23:01:00,
2013-11-02 19:06:00,38.9,38.0,28.76,NNE,22,2.0,7.0,96,0.00,,,0.14,Rainwise IP-100,2013-11-02 23:06:00,
2013-11-02 19:11:00,38.9,38.0,28.77,NNE,22,4.0,6.0,96,0.00,,,0.14,Rainwise IP-100,2013-11-02 23:11:00,
2013-11-02 19:16:00,38.9,38.0,28.77,NNE,22,5.0,8.0,96,0.00,,,0.14,Rainwise IP-100,2013-11-02 23:16:00,
2013-11-02 19:21:00,38.9,38.0,28.77,North,360,3.0,8.0,96,0.00,,,0.14,Rainwise IP-100,2013-11-02 23:21:00,
2013-11-02 19:26:00,38.9,38.0,28.78,North,360,4.0,4.0,96,0.00,,,0.14,Rainwise IP-100,2013-11-02 23:26:00,
2013-11-02 19:31:00,38.9,38.0,28.78,North,360,7.0,9.0,96,0.00,,,0.15,Rainwise IP-100,2013-11-02 23:31:00,
2013-11-02 19:36:00,38.8,38.0,28.78,North,360,2.0,12.0,96,0.06,,,0.15,Rainwise IP-100,2013-11-02 23:36:00,
2013-11-02 19:41:00,38.8,38.0,28.78,North,360,5.0,10.0,96,0.06,,,0.15,Rainwise IP-100,2013-11-02 23:41:00,
2013-11-02 19:46:00,38.8,38.0,28.79,NNE,22,5.0,7.0,96,0.00,,,0.15,Rainwise IP-100,2013-11-02 23:46:00,
2013-11-02 19:51:00,38.8,38.0,28.79,NNE,22,2.0,11.0,96,0.00,,,0.15,Rainwise IP-100,2013-11-02 23:51:00,
2013-11-02 19:57:00,38.8,38.0,28.80,NNE,22,5.0,7.0,96,0.00,,,0.15,Rainwise IP-100,2013-11-02 23:57:00,
2013-11-02 20:02:00,38.6,38.0,28.80,NNE,22,4.0,9.0,96,0.00,,,0.15,Rainwise IP-100,2013-11-03 00:02:00,
2013-11-02 20:07:00,38.6,38.0,28.80,NNW,337,4.0,6.0,96,0.00,,,0.15,Rainwise IP-100,2013-11-03 00:07:00,
2013-11-02 20:12:00,38.6,38.0,28.80,NNE,22,4.0,5.0,96,0.00,,,0.15,Rainwise IP-100,2013-11-03 00:12:00,
2013-11-02 20:17:00,38.6,38.0,28.80,NE,45,2.0,8.0,96,0.00,,,0.15,Rainwise IP-100,2013-11-03 00:17:00,
2013-11-02 20:22:00,38.6,38.0,28.81,North,360,4.0,11.0,96,0.00,,,0.15,Rainwise IP-100,2013-11-03 00:22:00,
2013-11-02 20:27:00,38.6,38.0,28.81,NNE,22,6.0,8.0,96,0.00,,,0.15,Rainwise IP-100,2013-11-03 00:27:00,
2013-11-02 20:32:00,38.6,38.0,28.81,NNE,22,6.0,9.0,96,0.00,,,0.15,Rainwise IP-100,2013-11-03 00:32:00,
2013-11-02 20:37:00,38.5,38.0,28.81,NNE,22,2.0,8.0,96,0.00,,,0.15,Rainwise IP-100,2013-11-03 00:37:00,
2013-11-02 20:42:00,38.5,38.0,28.82,North,360,4.0,6.0,96,0.00,,,0.15,Rainwise IP-100,2013-11-03 00:42:00,
2013-11-02 20:47:00,38.5,38.0,28.82,NE,45,6.0,9.0,96,0.00,,,0.15,Rainwise IP-100,2013-11-03 00:47:00,
2013-11-02 20:52:00,38.4,37.0,28.82,NNE,22,4.0,8.0,96,0.00,,,0.15,Rainwise IP-100,2013-11-03 00:52:00,
2013-11-02 20:58:00,38.4,37.0,28.82,NNE,22,5.0,7.0,96,0.00,,,0.15,Rainwise IP-100,2013-11-03 00:58:00,
2013-11-02 21:03:00,38.5,38.0,28.82,North,360,7.0,7.0,96,0.00,,,0.15,Rainwise IP-100,2013-11-03 01:03:00,
2013-11-02 21:08:00,38.5,38.0,28.83,North,360,6.0,9.0,96,0.00,,,0.15,Rainwise IP-100,2013-11-03 01:08:00,
2013-11-02 21:13:00,38.5,38.0,28.83,North,360,5.0,7.0,96,0.00,,,0.15,Rainwise IP-100,2013-11-03 01:13:00,
2013-11-02 21:18:00,38.5,38.0,28.83,NNE,22,4.0,7.0,96,0.00,,,0.15,Rainwise IP-100,2013-11-03 01:18:00,
2013-11-02 21:23:00,38.5,38.0,28.84,NNE,22,4.0,7.0,96,0.00,,,0.15,Rainwise IP-100,2013-11-03 01:23:00,
2013-11-02 21:28:00,38.5,38.0,28.84,North,360,4.0,6.0,96,0.00,,,0.15,Rainwise IP-100,2013-11-03 01:28:00,
2013-11-02 21:33:00,38.5,38.0,28.84,NNE,22,2.0,7.0,96,0.00,,,0.15,Rainwise IP-100,2013-11-03 01:33:00,
2013-11-02 21:38:00,38.4,37.0,28.84,NNE,22,3.0,6.0,96,0.00,,,0.15,Rainwise IP-100,2013-11-03 01:38:00,
2013-11-02 21:43:00,38.4,37.0,28.85,North,360,4.0,7.0,96,0.00,,,0.15,Rainwise IP-100,2013-11-03 01:43:00,
2013-11-02 21:48:00,38.3,37.0,28.85,NNE,22,2.0,6.0,96,0.00,,,0.15,Rainwise IP-100,2013-11-03 01:48:00,
2013-11-02 21:53:00,38.3,37.0,28.85,NNE,22,1.0,7.0,96,0.00,,,0.15,Rainwise IP-100,2013-11-03 01:53:00,
2013-11-02 21:59:00,38.3,37.0,28.85,NNE,22,3.0,7.0,96,0.00,,,0.15,Rainwise IP-100,2013-11-03 01:59:00,
2013-11-02 22:04:00,38.2,37.0,28.86,NNE,22,3.0,5.0,96,0.00,,,0.15,Rainwise IP-100,2013-11-03 02:04:00,
2013-11-02 22:09:00,37.9,37.0,28.86,NNE,22,6.0,11.0,94,0.00,,,0.15,Rainwise IP-100,2013-11-03 02:09:00,
2013-11-02 22:14:00,37.9,36.0,28.86,North,360,3.0,9.0,92,0.00,,,0.15,Rainwise IP-100,2013-11-03 02:14:00,
2013-11-02 22:19:00,37.9,36.0,28.86,NNE,22,4.0,7.0,91,0.00,,,0.15,Rainwise IP-100,2013-11-03 02:19:00,
2013-11-02 22:24:00,37.9,36.0,28.87,NE,45,2.0,10.0,91,0.00,,,0.15,Rainwise IP-100,2013-11-03 02:24:00,
2013-11-02 22:29:00,37.9,36.0,28.87,North,360,6.0,8.0,91,0.00,,,0.15,Rainwise IP-100,2013-11-03 02:29:00,
2013-11-02 22:34:00,37.8,35.0,28.88,NNE,22,3.0,9.0,89,0.00,,,0.15,Rainwise IP-100,2013-11-03 02:34:00,
2013-11-02 22:39:00,37.8,36.0,28.88,NNE,22,3.0,7.0,90,0.00,,,0.15,Rainwise IP-100,2013-11-03 02:39:00,
2013-11-02 22:44:00,37.7,36.0,28.88,North,360,3.0,6.0,92,0.00,,,0.15,Rainwise IP-100,2013-11-03 02:44:00,
2013-11-02 22:49:00,37.8,35.0,28.88,North,360,5.0,10.0,89,0.00,,,0.15,Rainwise IP-100,2013-11-03 02:49:00,
2013-11-02 22:54:00,37.8,36.0,28.88,NNE,22,4.0,9.0,90,0.00,,,0.15,Rainwise IP-100,2013-11-03 02:54:00,
2013-11-02 23:00:00,37.7,35.0,28.88,NE,45,6.0,8.0,88,0.00,,,0.15,Rainwise IP-100,2013-11-03 03:00:00,
2013-11-02 23:05:00,37.8,35.0,28.88,NNW,337,3.0,9.0,87,0.00,,,0.15,Rainwise IP-100,2013-11-03 03:05:00,
2013-11-02 23:10:00,37.7,35.0,28.88,NE,45,3.0,8.0,89,0.00,,,0.15,Rainwise IP-100,2013-11-03 03:10:00,
2013-11-02 23:15:00,37.6,35.0,28.89,NNW,337,6.0,9.0,88,0.00,,,0.15,Rainwise IP-100,2013-11-03 03:15:00,
2013-11-02 23:20:00,37.5,35.0,28.89,NNE,22,7.0,8.0,89,0.00,,,0.15,Rainwise IP-100,2013-11-03 03:20:00,
2013-11-02 23:25:00,37.5,35.0,28.89,North,360,3.0,7.0,89,0.00,,,0.15,Rainwise IP-100,2013-11-03 03:25:00,
2013-11-02 23:30:00,37.4,33.0,28.89,North,360,4.0,7.0,88,0.00,,,0.15,Rainwise IP-100,2013-11-03 03:30:00,
2013-11-02 23:35:00,37.4,33.0,28.89,NNE,22,4.0,7.0,88,0.00,,,0.15,Rainwise IP-100,2013-11-03 03:35:00,
2013-11-02 23:40:00,37.4,33.0,28.89,NNE,22,7.0,9.0,88,0.00,,,0.15,Rainwise IP-100,2013-11-03 03:40:00,
2013-11-02 23:45:00,37.3,35.0,28.89,NNE,22,4.0,9.0,89,0.00,,,0.15,Rainwise IP-100,2013-11-03 03:45:00,
2013-11-02 23:50:00,37.3,33.0,28.90,North,360,4.0,7.0,88,0.00,,,0.15,Rainwise IP-100,2013-11-03 03:50:00,
2013-11-02 23:55:00,37.2,35.0,28.89,North,360,5.0,6.0,90,0.00,,,0.15,Rainwise IP-100,2013-11-03 03:55:00,